Weather History for Glen Ullin Rgnl, Glen Ullin,, ND

Change the Weather History Date:

Saturday, March 8, 2014

  Actual Average (KDIK) Record (KDIK)
Temperature  
Mean Temperature 34 °F 27 °F  
Max Temperature 50 °F 38 °F 62 °F (1905)
Min Temperature 17 °F 16 °F -22 °F (2003)
Degree Days  
Heating Degree Days 32 38  
Month to date heating degree days 316  
Since 1 July heating degree days 6610  
Cooling Degree Days 0 0  
Month to date cooling degree days 0  
Year to date cooling degree days 0  
Moisture  
Dew Point 24 °F    
Average Humidity 70    
Maximum Humidity 81    
Minimum Humidity 54    
Precipitation  
Precipitation 0.00 in 0.01 in 0.11 in (1963)
Month to date precipitation 0.13  
Year to date precipitation 0.76  
Sea Level Pressure  
Sea Level Pressure 30.05 in    
Wind  
Wind Speed 8 mph (SSW)    
Max Wind Speed 16 mph    
Max Gust Speed 22 mph    
Visibility 10 miles    
Events      
T = Trace of Precipitation, MM = Missing Value Source: NWS Daily Summary

Daily Weather History Graph

Daily Weather History Graph

Search for Another Location

Airport:

Trip Planner

Search our weather history database for the weather conditions in past years. The results will help you decide how hot, cold, wet, or windy it might be!

Date:

Astronomy

Mar. 08, 2014 Rise Set
Actual Time 6:13 AM MST 5:43 PM MST
Civil Twilight 5:43 AM MST 6:13 PM MST
Nautical Twilight 5:08 AM MST 6:48 PM MST
Astronomical Twilight 4:32 AM MST 7:24 PM MST
Moon 10:33 AM MST (3/8) 1:05 AM MST (3/8)
Length of Visible Light 12h 30m
Length of Day
11h 29m
First Quarter, 52% of the Moon is Illuminated
Mar 8
First Quarter
Mar 16
Full
Mar 23
Last Quarter
Mar 30
New
Apr 7
First Quarter

Hourly Weather History & Observations

Time (MST) Temp. Windchill Dew Point Humidity Pressure Visibility Wind Dir Wind Speed Gust Speed Precip Events Conditions
12:15 AM 17.6 °F 7.3 °F 10.4 °F 73% 30.21 in 10.0 mi SE 8.1 mph - N/A   Overcast
12:35 AM 17.6 °F 8.2 °F 10.4 °F 73% 30.21 in 10.0 mi SE 6.9 mph - N/A   Overcast
12:55 AM 17.6 °F 8.2 °F 10.4 °F 73% 30.21 in 10.0 mi SSE 6.9 mph - N/A   Overcast
1:15 AM 17.6 °F 7.3 °F 10.4 °F 73% 30.21 in 10.0 mi SSE 8.1 mph - N/A   Overcast
1:35 AM 17.6 °F 9.3 °F 10.4 °F 73% 30.21 in 10.0 mi SSE 5.8 mph - N/A   Overcast
1:55 AM 17.6 °F 7.3 °F 10.4 °F 73% 30.20 in 10.0 mi SSE 8.1 mph - N/A   Overcast
2:15 AM 17.6 °F 7.3 °F 10.4 °F 73% 30.19 in 10.0 mi SSE 8.1 mph - N/A   Overcast
2:35 AM 17.6 °F 7.3 °F 10.4 °F 73% 30.19 in 10.0 mi SSE 8.1 mph - N/A   Overcast
2:55 AM 17.6 °F 7.3 °F 10.4 °F 73% 30.19 in 10.0 mi SSE 8.1 mph - N/A   Overcast
3:15 AM 17.6 °F 7.3 °F 12.2 °F 79% 30.19 in 10.0 mi SSE 8.1 mph - N/A   Overcast
3:35 AM 17.6 °F 8.2 °F 12.2 °F 79% 30.18 in 10.0 mi SSE 6.9 mph - N/A   Overcast
3:55 AM 17.6 °F 9.3 °F 12.2 °F 79% 30.19 in 10.0 mi Variable 5.8 mph - N/A   Overcast
4:15 AM 19.4 °F 11.5 °F 12.2 °F 74% 30.18 in 10.0 mi SSE 5.8 mph - N/A   Overcast
4:35 AM 19.4 °F 12.8 °F 12.2 °F 74% 30.18 in 10.0 mi SE 4.6 mph - N/A   Overcast
4:55 AM 19.4 °F 12.8 °F 14.0 °F 80% 30.17 in 10.0 mi SSE 4.6 mph - N/A   Overcast
5:15 AM 19.4 °F 12.8 °F 14.0 °F 80% 30.17 in 10.0 mi SSE 4.6 mph - N/A   Overcast
5:35 AM 19.4 °F - 14.0 °F 80% 30.18 in 10.0 mi Calm Calm - N/A   Overcast
5:55 AM 19.4 °F 12.8 °F 14.0 °F 80% 30.17 in 10.0 mi SE 4.6 mph - N/A   Overcast
6:15 AM 19.4 °F 12.8 °F 14.0 °F 80% 30.17 in 10.0 mi ESE 4.6 mph - N/A   Overcast
6:35 AM 21.2 °F 16.4 °F 15.8 °F 80% 30.17 in 10.0 mi SE 3.5 mph - N/A   Overcast
6:55 AM 21.2 °F - 15.8 °F 80% 30.17 in 10.0 mi Calm Calm - N/A   Overcast
7:15 AM 21.2 °F 13.6 °F 15.8 °F 80% 30.17 in 10.0 mi South 5.8 mph - N/A   Overcast
7:35 AM 23.0 °F - 15.8 °F 74% 30.17 in 10.0 mi Calm Calm - N/A   Overcast
7:55 AM 24.8 °F - 17.6 °F 74% 30.16 in 10.0 mi Calm Calm - N/A   Partly Cloudy
8:15 AM 26.6 °F 20.0 °F 17.6 °F 69% 30.16 in 10.0 mi Variable 5.8 mph - N/A   Clear
8:35 AM 28.4 °F 19.7 °F 19.4 °F 69% 30.15 in 10.0 mi SW 9.2 mph - N/A   Clear
8:55 AM 30.2 °F 21.9 °F 21.2 °F 69% 30.15 in 10.0 mi SSW 9.2 mph - N/A   Clear
9:15 AM 32.0 °F 24.2 °F 21.2 °F 64% 30.15 in 10.0 mi SSW 9.2 mph - N/A   Clear
9:35 AM 33.8 °F 25.3 °F 23.0 °F 65% 30.15 in 10.0 mi WSW 11.5 mph - N/A   Clear
9:55 AM 33.8 °F 25.8 °F 23.0 °F 65% 30.14 in 10.0 mi WSW 10.4 mph - N/A   Clear
10:15 AM 35.6 °F 28.6 °F 24.8 °F 65% 30.13 in 10.0 mi SSW 9.2 mph 16.1 mph N/A   Clear
10:35 AM 35.6 °F 27.5 °F 24.8 °F 65% 30.13 in 10.0 mi SW 11.5 mph - N/A   Clear
10:55 AM 37.4 °F 29.3 °F 24.8 °F 60% 30.12 in 10.0 mi SSW 12.7 mph - N/A   Clear
11:15 AM 39.2 °F 32.0 °F 26.6 °F 61% 30.12 in 0.2 mi SW 11.5 mph - N/A   Haze
11:35 AM 41.0 °F 33.9 °F 26.6 °F 57% 30.11 in 1.2 mi SW 12.7 mph - N/A   Haze
11:55 AM 41.0 °F 34.7 °F 28.4 °F 61% 30.10 in 10.0 mi SW 10.4 mph - N/A   Clear
12:15 PM 42.8 °F 36.2 °F 28.4 °F 57% 30.09 in 10.0 mi SW 12.7 mph - N/A   Clear
12:35 PM 42.8 °F 36.6 °F 28.4 °F 57% 30.08 in 10.0 mi WSW 11.5 mph 18.4 mph N/A   Clear
12:55 PM 44.6 °F 38.4 °F 30.2 °F 57% 30.06 in 10.0 mi SW 12.7 mph - N/A   Clear
1:15 PM 44.6 °F 37.8 °F 30.2 °F 57% 30.05 in 10.0 mi SW 15.0 mph - N/A   Clear
1:35 PM 46.4 °F 40.7 °F 32.0 °F 57% 30.03 in 10.0 mi SSW 12.7 mph - N/A   Clear
1:55 PM 46.4 °F 41.9 °F 32.0 °F 57% 30.02 in 10.0 mi SW 9.2 mph 15.0 mph N/A   Clear
2:15 PM 48.2 °F - 32.0 °F 54% 30.01 in 10.0 mi SSW 13.8 mph - N/A   Clear
2:35 PM 48.2 °F - 33.8 °F 58% 30.00 in 10.0 mi SSW 10.4 mph - N/A   Clear
2:55 PM 48.2 °F - 33.8 °F 58% 30.01 in 10.0 mi SSW 12.7 mph - N/A   Clear
3:15 PM 48.2 °F - 33.8 °F 58% 30.00 in 10.0 mi SW 12.7 mph - N/A   Clear
3:35 PM 48.2 °F - 33.8 °F 58% 29.98 in 10.0 mi SW 11.5 mph - N/A   Clear
3:55 PM 50.0 °F - 35.6 °F 58% 29.97 in 10.0 mi SW 12.7 mph - N/A   Clear
4:15 PM 48.2 °F - 35.6 °F 62% 29.97 in 10.0 mi SSW 11.5 mph - N/A   Clear
4:35 PM 48.2 °F - 35.6 °F 62% 29.97 in 10.0 mi SSW 9.2 mph - N/A   Clear
4:55 PM 44.6 °F 39.2 °F 33.8 °F 66% 29.96 in 10.0 mi SSW 10.4 mph - N/A   Clear
5:15 PM 44.6 °F 38.8 °F 33.8 °F 66% 29.95 in 10.0 mi SSW 11.5 mph - N/A   Clear
5:35 PM 42.8 °F 37.5 °F 33.8 °F 70% 29.95 in 10.0 mi SSW 9.2 mph - N/A   Clear
5:55 PM 41.0 °F 34.3 °F 33.8 °F 76% 29.94 in 10.0 mi SSW 11.5 mph - N/A   Clear
6:15 PM 41.0 °F 33.9 °F 32.0 °F 70% 29.93 in 10.0 mi SW 12.7 mph - N/A   Clear
6:35 PM 41.0 °F 34.3 °F 32.0 °F 70% 29.93 in 10.0 mi SSW 11.5 mph - N/A   Clear
6:55 PM 39.2 °F 32.0 °F 32.0 °F 75% 29.92 in 10.0 mi SSW 11.5 mph - N/A   Clear
7:15 PM 39.2 °F 35.0 °F 32.0 °F 75% 29.91 in 10.0 mi SW 5.8 mph 12.7 mph N/A   Clear
7:35 PM 37.4 °F 33.8 °F 30.2 °F 75% 29.90 in 10.0 mi West 4.6 mph - N/A   Clear
7:55 PM 37.4 °F 34.9 °F 32.0 °F 81% 29.89 in 10.0 mi WNW 3.5 mph - N/A   Clear
8:15 PM 39.2 °F 34.2 °F 32.0 °F 75% 29.89 in 10.0 mi WSW 6.9 mph - N/A   Clear
8:35 PM 39.2 °F 37.0 °F 32.0 °F 75% 29.88 in 10.0 mi Variable 3.5 mph - N/A   Clear
8:55 PM 41.0 °F 33.5 °F 32.0 °F 70% 29.87 in 10.0 mi SW 13.8 mph - N/A   Clear
9:15 PM 39.2 °F 37.0 °F 32.0 °F 75% 29.88 in 10.0 mi West 3.5 mph 12.7 mph N/A   Clear
9:35 PM 37.4 °F - 32.0 °F 81% 29.86 in 10.0 mi Calm Calm - N/A   Clear
9:55 PM 41.0 °F 37.1 °F 32.0 °F 70% 29.84 in 10.0 mi SSW 5.8 mph - N/A   Clear
10:15 PM 39.2 °F 33.0 °F 32.0 °F 75% 29.83 in 10.0 mi SW 9.2 mph - N/A   Clear
10:35 PM 39.2 °F 33.0 °F 32.0 °F 75% 29.81 in 10.0 mi SW 9.2 mph - N/A   Clear
10:55 PM 39.2 °F 35.0 °F 32.0 °F 75% 29.81 in 10.0 mi WSW 5.8 mph - N/A   Clear
11:15 PM 39.2 °F - 32.0 °F 75% 29.79 in 10.0 mi Calm Calm - N/A   Clear
11:35 PM 39.2 °F 31.6 °F 32.0 °F 75% 29.78 in 10.0 mi WSW 12.7 mph - N/A   Clear
11:55 PM 39.2 °F 30.5 °F 32.0 °F 75% 29.77 in 10.0 mi SW 16.1 mph 21.9 mph N/A   Clear